Flag for Finland Weather past 2 weeks in Lahti, Finland

Now
27 °F

Partly sunny.


Feels Like: 19 °F
Forecast: 25 / 31 °F
Wind: 7 mph from South

Location: Utti

Current Time: Jan 25, 2015 at 2:36:47 PM

Latest Report: Jan 25, 2015 at 1:50 PM


Visibility: N/A

Pressure: 30.09 "Hg

Humidity: 86%

Dew point: 23 °F

Location of LahtiLocation

Historic Weather in Lahti — Graph

°F

Lahti temperature yesterday

Maximum temperature yesterday: 28 °F (at 12:50 AM)
Minimum temperature yesterday: 18 °F (at 9:50 AM)
Average temperature yesterday: 27 °F

Past Weeks' High & Low Weather Summary

 TemperatureHumidityPressure
High37 °F (Jan 16, 9:20 PM)100% (Jan 10, 2:20 PM)30.48 "Hg (Jan 10, 2:20 PM)
Low0 °F (Jan 12, 10:20 PM)72% (Jan 22, 10:20 AM)28.68 "Hg (Jan 11, 4:20 AM)
Average22 °F91%29.71 "Hg
* Reported Jan 10 1:20 PM — Jan 25 1:20 PM, Lahti, Weather by CustomWeather, © 2014

Note: Actual official high and low records may vary slightly from our data, if they occured in-between our weather recording intervals... More about our weather records

Advertising

Lahti weather history for previous 24 hours

 ConditionsComfort  
Time TempWeatherWind HumidityBarometerVisibility
1:20 PM
Jan 25
27 °FPartly sunny.5 mph86%30.09 "HgN/A
12:50 PM27 °FScattered clouds.9 mph86%30.09 "HgN/A
12:20 PM27 °FLow clouds.7 mph86%30.12 "HgN/A
11:50 AM27 °FLow clouds.7 mph93%30.12 "HgN/A
11:20 AM27 °FOvercast.8 mph86%30.12 "HgN/A
10:50 AM27 °FPartly sunny.8 mph86%30.09 "HgN/A
10:20 AM25 °FPartly sunny.9 mph93%30.09 "HgN/A
9:50 AM27 °FOvercast.8 mph86%30.09 "HgN/A
9:20 AM27 °FMostly cloudy.8 mph86%30.12 "HgN/A
8:50 AM25 °FMostly cloudy.8 mph93%30.09 "HgN/A
8:20 AM25 °FMostly cloudy.8 mph93%30.09 "HgN/A
7:50 AM25 °FOvercast.8 mph86%30.09 "HgN/A
7:20 AM25 °FPassing clouds.7 mph93%30.09 "HgN/A
6:50 AM27 °FOvercast.9 mph86%30.09 "HgN/A
6:20 AM27 °FMostly cloudy.7 mph86%30.09 "HgN/A
5:50 AM27 °FOvercast.7 mph86%30.09 "HgN/A
5:20 AM27 °FOvercast.7 mph86%30.09 "HgN/A
4:50 AM27 °FMostly cloudy.7 mph86%30.09 "HgN/A
4:20 AM27 °FOvercast.8 mph86%30.09 "HgN/A
3:50 AM27 °FOvercast.9 mph86%30.09 "HgN/A
3:20 AM27 °FOvercast.8 mph86%30.09 "HgN/A
2:50 AM27 °FOvercast.9 mph86%30.09 "HgN/A
2:20 AM28 °FOvercast.9 mph86%30.09 "HgN/A
1:50 AM28 °FOvercast.9 mph86%30.09 "HgN/A
1:20 AM28 °FOvercast.10 mph86%30.09 "HgN/A
12:50 AM28 °FOvercast.12 mph86%30.09 "HgN/A
12:20 AM28 °FOvercast.10 mph86%30.09 "HgN/A
11:50 PM
Jan 24
28 °FOvercast.9 mph86%30.09 "HgN/A
11:20 PM28 °FOvercast.12 mph86%30.09 "HgN/A
10:50 PM28 °FOvercast.9 mph86%30.09 "HgN/A
10:20 PM28 °FOvercast.10 mph93%30.09 "HgN/A
9:50 PM28 °FMostly cloudy.8 mph93%30.09 "HgN/A
9:20 PM28 °FMostly cloudy.9 mph93%30.09 "HgN/A
8:50 PM28 °FMostly cloudy.8 mph93%30.09 "HgN/A
8:20 PM28 °FOvercast.9 mph86%30.09 "HgN/A
7:50 PM28 °FMostly cloudy.8 mph93%30.09 "HgN/A
7:20 PM28 °FOvercast.7 mph93%30.09 "HgN/A
6:50 PM28 °FOvercast.7 mph93%30.09 "HgN/A
6:20 PM28 °FOvercast.6 mph93%30.07 "HgN/A
5:50 PM28 °FSnow flurries. Overcast.7 mph93%30.09 "HgN/A
5:20 PM28 °FOvercast.7 mph93%30.07 "HgN/A
4:50 PM27 °FLow clouds.6 mph100%30.07 "HgN/A
4:20 PM27 °FOvercast.6 mph93%30.07 "HgN/A
3:50 PM27 °FMostly cloudy.3 mph93%30.07 "HgN/A
3:20 PM27 °FOvercast.6 mph93%30.07 "HgN/A
2:50 PM27 °FOvercast.5 mph86%30.07 "HgN/A
2:20 PM27 °FOvercast.6 mph86%30.07 "HgN/A
Weather by CustomWeather, © 2014

See weather overviewHow to use our weather pages